Location: Ocean City
(38.3360°N, 75.0850°W)
Time: 18:24:36
(UTC-05:00)

deb Explorer IX - Visible Passes

Search period start: 17 November 2019 00:00
Search period end: 27 November 2019 00:00
Orbit: 546 x 1105 km, 38.8° (Epoch: 16 November)

Date Brightness Start Highest point End Pass type
(mag) Time Alt. Az. Time Alt. Az. Time Alt. Az.
17 Nov ? 03:10:56 12° E 03:10:56 12° E 03:11:19 10° E visible
17 Nov ? 04:52:19 56° W 04:53:24 89° S 04:57:58 10° E visible
18 Nov ? 04:31:35 86° ESE 04:31:35 86° ESE 04:36:11 10° E visible
18 Nov ? 06:13:37 10° W 06:18:12 39° SSW 06:22:15 10° SE visible
19 Nov ? 04:10:52 51° E 04:10:52 51° E 04:14:23 10° E visible
19 Nov ? 05:52:14 13° W 05:56:18 39° SSW 06:00:26 10° SE visible
20 Nov ? 03:50:10 31° E 03:50:10 31° E 03:52:36 10° E visible
20 Nov ? 05:31:32 21° W 05:34:23 39° SSW 05:38:38 10° SE visible
21 Nov ? 03:29:29 19° E 03:29:29 19° E 03:30:48 10° E visible
21 Nov ? 05:10:52 31° WSW 05:12:27 39° SSW 05:16:49 10° SE visible
22 Nov ? 03:08:50 11° ESE 03:08:50 11° ESE 03:08:58 10° ESE visible
22 Nov ? 04:50:13 39° SW 04:50:31 40° SSW 04:55:00 10° SE visible
23 Nov ? 04:29:38 36° S 04:29:38 36° S 04:33:10 10° SE visible
24 Nov ? 04:09:03 25° SSE 04:09:03 25° SSE 04:11:20 10° SE visible
25 Nov ? 03:48:32 15° SE 03:48:32 15° SE 03:49:29 10° SE visible
26 Nov ? 19:46:21 10° S 19:46:57 12° S 19:46:57 12° S visible
